User: anonymous   Login
Location: Unspecified
(0.0000°N, 0.0000°E)
Time: 05:45:01
(UTC+00:00)
Language:

LilacSat-2 - Orbit

View from above orbital plane
View from above orbital plane
View from above satellite
View from above satellite

Ground track
Ground track

The orbit data is extracted from the following two-line orbital elements,

1 40908U 15049K   19114.72827855  .00000538  00000-0  33368-4 0  9993
2 40908  97.4778 116.3369 0017162  38.0107  47.7678 15.13757929198499
Epoch (UTC): 24 April 2019 17:28:43
Eccentricity: 0.0017162
inclination: 97.4778°
perigee height: 513 km
apogee height: 536 km
right ascension of ascending node: 116.3369°
argument of perigee: 38.0107°
revolutions per day: 15.13757929
mean anomaly at epoch: 47.7678°
orbit number at epoch: 19849

The dashed part of the orbit path shows where the satellite is in the earth's shadow,  

DLR